• In Germany
  • List of Countries
  • For 7 days
  • Water Temperature
  • Satellite Maps
  • Weather Map
  • Weather Widgets
  • user-avatar
    Login

    Hourly Weather Ilebo

    Today, 16 December, Saturday

    Time Temperature Precipitation Wind Pressure Humidity
    00:00 +25°C° 0 mm 0 mps 721 mmHg 42%
    01:00 +24°C° 0 mm 0 mps 721 mmHg 42%
    02:00 +24°C° 0 mm 0 mps 721 mmHg 43%
    03:00 +23°C° 0 mm 0 mps 721 mmHg 43%
    04:00 +23°C° 0 mm 0 mps 721 mmHg 44%
    05:00 +24°C° 0 mm 0 mps 721 mmHg 42%
    06:00 +25°C° 0 mm 0 mps 722 mmHg 40%
    07:00 +26°C° 0 mm 0 mps 722 mmHg 39%
    08:00 +30°C° 0 mm 0 mps 723 mmHg 33%
    09:00 +35°C° 0 mm 1 mps 723 mmHg 26%
    10:00 +39°C° 0 mm 1 mps 723 mmHg 20%
    11:00 +40°C° 0 mm 1 mps 722 mmHg 18%
    12:00 +41°C° 0 mm 1 mps 722 mmHg 16%
    13:00 +42°C° 0 mm 1 mps 721 mmHg 15%
    14:00 +41°C° 0 mm 1 mps 720 mmHg 15%
    15:00 +41°C° 0 mm 1 mps 719 mmHg 15%
    16:00 +40°C° 0 mm 1 mps 719 mmHg 16%
    17:00 +36°C° 0 mm 1 mps 719 mmHg 18%
    18:00 +34°C° 0 mm 1 mps 719 mmHg 21%
    19:00 +31°C° 0 mm 1 mps 720 mmHg 24%
    20:00 +31°C° 0 mm 1 mps 720 mmHg 24%
    21:00 +30°C° 0 mm 1 mps 720 mmHg 25%
    22:00 +30°C° 0 mm 1 mps 721 mmHg 25%
    23:00 +29°C° 0 mm 1 mps 720 mmHg 26%

    Tomorrow, 17 December, Sunday

    Time Temperature Precipitation Wind Pressure Humidity
    00:00 +28°C° 0 mm 1 mps 720 mmHg 27%
    01:00 +26°C° 0 mm 0 mps 720 mmHg 28%
    02:00 +25°C° 0 mm 0 mps 720 mmHg 29%
    03:00 +24°C° 0 mm 0 mps 720 mmHg 30%
    04:00 +24°C° 0 mm 0 mps 720 mmHg 32%
    05:00 +25°C° 0 mm 0 mps 721 mmHg 31%
    06:00 +26°C° 0 mm 0 mps 721 mmHg 30%
    07:00 +27°C° 0 mm 0 mps 722 mmHg 29%
    08:00 +32°C° 0 mm 1 mps 722 mmHg 25%
    09:00 +35°C° 0 mm 1 mps 723 mmHg 20%
    10:00 +39°C° 0 mm 2 mps 723 mmHg 15%
    11:00 +41°C° 0 mm 1 mps 722 mmHg 14%
    12:00 +42°C° 0 mm 1 mps 721 mmHg 13%
    13:00 +44°C° 0 mm 1 mps 720 mmHg 12%
    14:00 +43°C° 0 mm 1 mps 720 mmHg 12%
    15:00 +42°C° 0 mm 1 mps 719 mmHg 13%
    16:00 +41°C° 0 mm 1 mps 718 mmHg 13%
    17:00 +37°C° 0 mm 1 mps 719 mmHg 16%
    18:00 +35°C° 0 mm 1 mps 719 mmHg 18%
    19:00 +32°C° 0 mm 1 mps 719 mmHg 21%
    20:00 +31°C° 0 mm 1 mps 720 mmHg 22%
    21:00 +31°C° 0 mm 1 mps 720 mmHg 23%
    22:00 +30°C° 0 mm 1 mps 721 mmHg 23%
    23:00 +29°C° 0 mm 1 mps 721 mmHg 25%

    Day after tomorrow, 18 December, Monday

    Time Temperature Precipitation Wind Pressure Humidity
    00:00 +28°C° 0 mm 1 mps 720 mmHg 26%
    01:00 +28°C° 0 mm 1 mps 720 mmHg 28%
    02:00 +27°C° 0 mm 1 mps 720 mmHg 30%
    03:00 +27°C° 0 mm 1 mps 720 mmHg 31%
    04:00 +26°C° 0 mm 1 mps 720 mmHg 33%
    05:00 +27°C° 0 mm 1 mps 721 mmHg 33%
    06:00 +28°C° 0 mm 1 mps 722 mmHg 32%
    07:00 +28°C° 0 mm 1 mps 722 mmHg 32%
    08:00 +32°C° 0 mm 2 mps 723 mmHg 27%
    09:00 +36°C° 0 mm 2 mps 723 mmHg 21%
    10:00 +39°C° 0 mm 2 mps 723 mmHg 16%
    11:00 +41°C° 0 mm 1 mps 722 mmHg 14%
    12:00 +42°C° 0 mm 1 mps 721 mmHg 13%
    13:00 +43°C° 0 mm 1 mps 720 mmHg 11%
    14:00 +42°C° 0 mm 1 mps 720 mmHg 11%
    15:00 +42°C° 0 mm 1 mps 719 mmHg 12%
    16:00 +41°C° 0 mm 1 mps 718 mmHg 12%
    17:00 +37°C° 0 mm 1 mps 719 mmHg 15%
    18:00 +34°C° 0 mm 1 mps 719 mmHg 18%
    19:00 +29°C° 0 mm 0 mps 719 mmHg 21%
    20:00 +30°C° 0 mm 1 mps 720 mmHg 25%
    21:00 +29°C° 0 mm 1 mps 720 mmHg 30%
    22:00 +29°C° 0 mm 2 mps 721 mmHg 35%
    23:00 +28°C° 0 mm 1 mps 720 mmHg 41%

    19 December, Tuesday

    Time Temperature Precipitation Wind Pressure Humidity
    00:00 +27°C° 0 mm 1 mps 720 mmHg 47%
    01:00 +27°C° 0 mm 1 mps 720 mmHg 53%
    02:00 +26°C° 0 mm 1 mps 720 mmHg 57%
    03:00 +26°C° 0 mm 1 mps 720 mmHg 61%
    04:00 +26°C° 0 mm 1 mps 720 mmHg 65%
    05:00 +26°C° 0 mm 2 mps 721 mmHg 65%
    06:00 +27°C° 0 mm 2 mps 722 mmHg 64%
    07:00 +28°C° 0 mm 2 mps 722 mmHg 64%
    08:00 +30°C° 0 mm 2 mps 723 mmHg 56%
    09:00 +34°C° 0 mm 3 mps 723 mmHg 48%
    10:00 +36°C° 0 mm 3 mps 723 mmHg 40%
    11:00 +38°C° 0 mm 2 mps 722 mmHg 34%
    12:00 +40°C° 0 mm 2 mps 721 mmHg 28%
    13:00 +42°C° 0 mm 1 mps 720 mmHg 22%
    14:00 +41°C° 0 mm 1 mps 719 mmHg 23%
    15:00 +40°C° 0 mm 1 mps 719 mmHg 24%
    16:00 +35°C° 0 mm 0 mps 718 mmHg 25%
    17:00 +36°C° 0 mm 1 mps 719 mmHg 27%
    18:00 +34°C° 0 mm 1 mps 719 mmHg 30%
    19:00 +33°C° 0 mm 1 mps 720 mmHg 32%
    20:00 +32°C° 0 mm 1 mps 720 mmHg 34%
    21:00 +32°C° 0 mm 1 mps 720 mmHg 35%
    22:00 +32°C° 0 mm 1 mps 720 mmHg 37%
    23:00 +31°C° 0 mm 1 mps 720 mmHg 40%

    20 December, Wednesday

    Time Temperature Precipitation Wind Pressure Humidity
    00:00 +30°C° 0 mm 2 mps 720 mmHg 43%
    01:00 +29°C° 0 mm 2 mps 720 mmHg 46%
    02:00 +29°C° 0.1 mm 2 mps 720 mmHg 52%
    03:00 +28°C° 0.1 mm 2 mps 720 mmHg 58%
    04:00 +27°C° 0.1 mm 2 mps 720 mmHg 64%
    05:00 +27°C° 0 mm 2 mps 721 mmHg 66%
    06:00 +27°C° 0 mm 2 mps 722 mmHg 69%
    07:00 +27°C° 0 mm 2 mps 722 mmHg 71%
    08:00 +30°C° 0 mm 2 mps 723 mmHg 62%
    09:00 +32°C° 0 mm 2 mps 723 mmHg 53%
    10:00 +36°C° 0 mm 2 mps 723 mmHg 44%
    11:00 +38°C° 0 mm 2 mps 722 mmHg 38%
    12:00 +40°C° 0 mm 1 mps 721 mmHg 33%
    13:00 +40°C° 0 mm 0 mps 720 mmHg 27%
    14:00 +38°C° 0 mm 0 mps 720 mmHg 30%
    15:00 +39°C° 0 mm 1 mps 720 mmHg 32%
    16:00 +36°C° 0 mm 1 mps 719 mmHg 35%
    17:00 +34°C° 0.1 mm 1 mps 720 mmHg 41%
    18:00 +32°C° 0.1 mm 1 mps 720 mmHg 48%
    19:00 +30°C° 0.1 mm 1 mps 720 mmHg 54%
    20:00 +30°C° 0.1 mm 1 mps 721 mmHg 57%
    21:00 +29°C° 0.1 mm 1 mps 721 mmHg 60%
    22:00 +28°C° 0.1 mm 1 mps 721 mmHg 64%
    23:00 +28°C° 0 mm 1 mps 721 mmHg 67%

    21 December, Thursday

    Time Temperature Precipitation Wind Pressure Humidity
    00:00 +27°C° 0 mm 1 mps 721 mmHg 70%
    01:00 +27°C° 0 mm 2 mps 720 mmHg 72%
    02:00 +26°C° 0 mm 2 mps 720 mmHg 76%
    03:00 +26°C° 0 mm 1 mps 721 mmHg 79%
    04:00 +25°C° 0 mm 1 mps 721 mmHg 82%
    05:00 +26°C° 0 mm 1 mps 721 mmHg 79%
    06:00 +27°C° 0 mm 1 mps 722 mmHg 76%
    07:00 +28°C° 0 mm 1 mps 723 mmHg 73%
    08:00 +31°C° 0 mm 1 mps 723 mmHg 62%
    09:00 +34°C° 0 mm 1 mps 723 mmHg 50%
    10:00 +38°C° 0 mm 2 mps 723 mmHg 39%
    11:00 +37°C° 0 mm 1 mps 722 mmHg 37%
    12:00 +37°C° 0 mm 1 mps 721 mmHg 36%
    13:00 +37°C° 0 mm 1 mps 720 mmHg 34%
    14:00 +36°C° 0.1 mm 1 mps 720 mmHg 36%
    15:00 +35°C° 0.1 mm 1 mps 720 mmHg 38%
    16:00 +35°C° 0.1 mm 1 mps 719 mmHg 39%
    17:00 +33°C° 0.3 mm 1 mps 720 mmHg 48%
    18:00 +31°C° 0.3 mm 2 mps 720 mmHg 57%
    19:00 +29°C° 0.3 mm 2 mps 720 mmHg 65%
    20:00 +28°C° 0.1 mm 2 mps 721 mmHg 69%
    21:00 +28°C° 0.1 mm 2 mps 721 mmHg 72%
    22:00 +27°C° 0.1 mm 1 mps 721 mmHg 76%
    23:00 +27°C° 0 mm 1 mps 721 mmHg 77%
    Show more